Find Aureole 1

NORAD ID: 5729 Int'l Des: 1971-119 Owner: YUZH/CNES Country: SU operational
LEO

現在のビュー

3D地球を読み込み中...

Aureole 1について

説明を読み込み中...

次回通過

Passes for default location (London). Set your location on the main map for personalized predictions.

高度履歴

Loading altitude history...

軌道要素

1 5729U 71119A 26151.47860433 .00007131 00000-0 47576-3 0 9996
2 5729 73.9480 117.2077 0706475 322.5051 32.8721 13.99601021639371
Epoch: May 31, 2026 • Age: 8 hours

現在のステータス

高度 938.6 km
速度 7.37 km/s
衛星直下点 -42.83°S, 130.51°E
タイプ other

Most Searched